Wind_Speed
6 6 6 7 8 8 9 10 10 10 10 11 11 12 12 12 12 12 13 13 14 13 14 14 14 14 14 15 15 16 16 16 17 17 17 18 19 19
5 6 7 7 8 9 10 10 11 11 11 12 12 12 12 13 13 13 14 14 14 14 14 14 14 14 15 15 15 16 16 17 18 18 19 19 19 20
6 7 7 8 9 10 10 11 11 12 12 13 14 14 14 14 14 14 15 15 15 15 15 16 16 17 17 18 18 18 18 19 19 20 20 20 21 21
7 8 9 10 10 11 12 12 13 13 13 14 14 15 15 15 15 16 16 17 17 17 17 17 18 18 19 20 20 20 19 20 20 21 21 21 22 22
9 9 10 11 12 12 13 14 14 15 15 15 15 16 16 16 17 17 18 18 18 18 19 19 20 20 21 21 21 21 20 21 21 22 22 23 23 23
11 12 13 13 14 15 15 15 15 16 16 17 17 17 17 18 18 18 18 19 19 19 20 20 21 21 21 21 22 22 22 22 22 22 22 23 23 23
13 14 15 15 16 16 16 17 17 18 18 19 19 19 18 18 19 19 19 19 20 20 21 21 22 23 23 23 23 23 23 23 22 22 23 23 23 23
15 16 17 17 17 18 18 18 19 19 20 20 20 20 20 20 20 20 20 20 21 21 22 23 23 24 24 24 24 24 25 25 24 24 24 24 25 25
17 17 18 19 19 19 19 20 21 21 21 21 22 22 21 21 22 22 21 22 23 23 24 24 24 24 24 24 25 26 26 25 25 25 25 25 25 25
18 19 20 20 21 21 21 22 22 23 23 23 23 23 23 23 23 23 23 23 24 25 25 25 25 25 25 26 26 26 26 25 25 25 25 26 27 27
20 21 22 22 22 23 23 23 24 24 24 24 24 23 23 23 24 24 24 24 24 25 25 25 25 26 26 27 27 26 26 25 25 26 26 26 27 27
22 23 23 24 24 24 23 24 24 24 24 24 23 24 24 25 25 25 25 25 25 25 26 26 26 26 26 27 27 26 26 26 26 26 26 26 27 27
23 24 24 25 25 25 25 25 25 26 26 25 25 25 26 26 27 27 26 27 27 27 26 27 27 26 26 26 27 27 26 26 26 26 26 27 27 27
25 26 26 26 27 27 27 27 27 27 27 27 27 27 28 28 28 28 29 28 28 28 28 28 28 28 28 28 28 27 27 27 27 27 26 26 27 27
27 27 27 27 28 28 28 28 28 28 29 29 29 29 30 29 29 30 30 30 30 29 30 30 29 29 29 28 28 28 28 27 26 26 26 26 26 27
28 28 28 29 30 30 29 30 30 30 31 30 31 31 31 30 30 30 30 30 30 29 29 30 30 30 29 28 27 28 28 28 28 27 27 27 28 27
30 29 29 31 32 32 32 32 32 32 32 32 31 32 32 32 32 31 31 30 30 29 30 30 30 30 29 28 28 28 28 28 28 28 28 28 28 28
31 30 31 32 32 33 33 33 33 33 33 33 32 32 32 32 32 32 31 30 30 29 30 30 30 29 29 29 29 29 28 28 28 28 29 28 28 28
30 30 31 32 32 32 33 33 33 33 34 34 33 33 33 32 32 31 31 31 31 30 31 31 30 30 29 29 29 30 29 29 29 29 29 28 28 28
32 31 31 32 32 32 32 33 33 33 34 34 33 33 33 32 32 32 32 32 32 32 32 31 31 31 30 30 30 30 30 30 30 29 29 29 29 29
32 32 32 32 32 33 34 33 33 33 33 33 33 33 33 33 33 33 33 32 33 33 32 32 32 32 31 31 30 29 30 29 29 29 29 29 29 29
33 33 32 32 33 33 33 33 32 33 33 33 33 33 33 33 34 33 33 32 32 32 31 31 31 31 31 31 31 30 29 30 30 30 30 29 29 28
34 33 33 33 32 32 33 32 32 32 32 32 33 34 34 34 34 33 33 32 32 32 32 31 31 31 30 31 30 30 30 30 30 29 29 28 27 26
Wind_Direction
330 327 325 321 322 323 323 321 316 310 306 303 302 302 301 298 299 301 299 295 294 293 291 291 291 290 289 291 289 287 284 284 282 284 286 288 287 286
331 329 325 323 323 320 320 319 316 311 309 307 305 304 301 299 298 299 299 300 298 293 290 291 292 292 292 293 293 292 287 287 286 286 286 286 286 286
323 324 324 322 322 318 316 315 313 310 307 306 304 302 301 300 300 301 300 299 297 294 293 293 292 292 291 292 292 291 289 286 285 285 287 288 288 289
321 322 321 319 318 316 314 313 310 308 305 304 303 301 300 300 300 300 299 297 295 294 295 295 294 293 293 293 292 291 289 289 286 285 287 288 288 288
314 318 320 320 317 315 314 313 311 309 308 307 304 304 302 301 301 302 301 298 296 295 294 294 294 292 293 293 292 291 290 289 288 286 286 288 288 289
311 312 315 317 319 318 316 314 314 313 311 309 306 305 305 302 302 302 301 299 297 296 295 293 293 293 292 292 292 290 289 289 288 286 285 286 287 288
307 308 310 312 314 314 314 313 312 312 312 309 307 305 303 302 299 299 300 300 298 297 296 295 294 294 291 291 292 290 290 289 288 287 286 287 288 289
303 304 306 308 309 309 311 312 313 312 311 309 307 303 300 298 297 296 296 297 295 295 296 296 295 294 291 291 291 290 290 289 288 288 288 289 288 288
301 302 303 304 306 307 308 309 310 310 309 308 306 304 300 297 296 295 294 295 296 296 296 298 297 295 293 293 292 291 290 289 288 287 288 288 289 288
298 300 301 302 303 304 305 305 306 307 306 304 304 303 302 299 297 296 296 295 296 297 298 299 298 296 295 294 294 293 292 290 289 288 287 288 288 288
296 298 299 301 302 303 304 305 306 305 304 303 302 301 300 300 299 298 297 297 298 299 298 298 298 296 295 295 295 293 292 290 289 289 288 287 288 289
293 296 299 301 301 302 303 304 306 306 304 304 303 301 300 300 299 298 297 296 296 298 298 298 297 297 296 295 294 293 291 291 291 289 288 287 288 289
292 294 297 300 301 301 301 303 304 304 304 302 301 300 300 299 298 297 295 294 295 295 295 295 295 295 295 294 293 292 292 292 292 291 290 289 289 290
292 293 295 296 298 299 299 299 300 301 301 299 299 299 298 297 296 295 294 292 292 292 292 293 294 294 294 294 293 293 293 294 294 293 292 291 290 290
291 292 293 294 295 295 296 297 298 298 299 298 297 297 296 295 294 293 292 291 289 290 291 291 292 292 294 294 293 291 292 293 294 293 292 291 292 292
290 290 291 293 294 295 295 295 296 296 296 296 295 295 295 294 294 293 292 291 291 290 290 291 291 292 293 294 294 292 291 292 292 291 290 291 292 291
290 290 290 291 293 294 294 294 294 294 294 294 293 293 293 293 293 292 291 290 290 290 291 291 291 292 292 292 293 292 291 291 291 291 291 291 291 290
289 290 292 292 292 292 292 292 292 293 292 292 292 291 291 291 292 292 291 290 290 291 291 291 291 290 291 291 291 290 290 290 292 292 292 291 291 289
289 290 291 292 292 292 292 291 291 291 291 290 290 290 291 291 291 291 290 290 290 290 290 290 290 289 289 290 290 290 290 289 289 290 291 291 291 289
289 289 290 291 291 293 293 292 292 291 291 291 290 289 290 290 290 290 289 289 289 287 287 288 288 288 288 288 288 288 288 288 287 289 289 290 289 288
290 291 291 290 291 293 294 293 293 292 291 291 291 291 290 290 290 289 288 288 288 288 287 287 287 287 287 287 287 287 287 287 287 289 289 290 289 288
292 291 290 290 291 292 293 293 293 292 290 290 291 291 291 291 291 289 287 287 288 288 287 286 286 286 286 286 286 285 285 285 287 288 290 290 291 288
290 289 288 289 291 292 293 293 293 293 291 290 290 291 292 292 291 289 287 287 287 287 287 286 286 286 286 286 285 284 283 284 285 286 289 290 290 287
Height
5881 5880 5878 5877 5876 5874 5873 5872 5870 5868 5867 5865 5863 5861 5860 5858 5856 5854 5852 5850 5849 5847 5846 5844 5843 5841 5840 5838 5836 5835 5833 5832 5831 5829 5828 5826 5825 5823
5879 5878 5877 5875 5874 5872 5871 5869 5867 5866 5864 5862 5860 5859 5857 5855 5853 5851 5849 5847 5846 5844 5842 5840 5839 5837 5836 5834 5832 5831 5829 5828 5826 5825 5823 5821 5820 5818
5877 5876 5875 5873 5871 5870 5868 5866 5864 5863 5861 5859 5857 5855 5853 5852 5850 5847 5845 5843 5842 5840 5838 5836 5835 5833 5831 5830 5828 5826 5824 5823 5821 5819 5818 5816 5814 5812
5876 5874 5873 5871 5869 5867 5865 5863 5861 5859 5857 5855 5853 5851 5849 5848 5846 5844 5841 5839 5837 5835 5833 5832 5830 5828 5826 5825 5823 5821 5819 5817 5815 5814 5812 5810 5808 5806
5874 5872 5870 5868 5866 5864 5862 5860 5858 5856 5854 5852 5849 5847 5845 5843 5841 5839 5837 5835 5833 5830 5828 5827 5825 5823 5821 5819 5817 5815 5813 5811 5809 5807 5805 5804 5802 5800
5871 5869 5867 5865 5863 5861 5859 5857 5854 5852 5850 5848 5845 5843 5841 5839 5836 5834 5832 5830 5828 5826 5823 5821 5819 5817 5815 5813 5811 5809 5807 5805 5803 5801 5799 5797 5795 5793
5868 5866 5864 5862 5860 5858 5855 5853 5851 5848 5846 5843 5841 5839 5836 5834 5832 5829 5827 5825 5822 5820 5818 5815 5813 5811 5809 5807 5805 5803 5801 5798 5796 5794 5792 5790 5788 5786
5865 5863 5861 5858 5856 5854 5851 5849 5847 5844 5841 5839 5836 5833 5831 5829 5826 5824 5822 5819 5817 5815 5812 5810 5807 5805 5803 5800 5798 5796 5794 5791 5789 5787 5785 5783 5781 5779
5860 5858 5856 5854 5852 5849 5847 5844 5842 5839 5837 5834 5831 5828 5826 5823 5821 5818 5816 5813 5811 5808 5806 5803 5801 5799 5796 5794 5791 5789 5786 5784 5782 5780 5778 5775 5773 5771
5855 5853 5851 5849 5846 5844 5842 5839 5837 5834 5831 5828 5825 5822 5820 5817 5814 5812 5810 5807 5805 5802 5799 5797 5794 5792 5790 5787 5784 5781 5779 5776 5774 5772 5770 5768 5766 5764
5850 5848 5846 5843 5841 5838 5836 5833 5831 5828 5825 5822 5819 5816 5813 5810 5808 5806 5803 5801 5799 5796 5793 5790 5788 5785 5782 5780 5777 5774 5772 5769 5767 5765 5762 5760 5758 5756
5844 5842 5840 5838 5835 5832 5830 5827 5824 5821 5818 5815 5812 5810 5807 5804 5801 5799 5796 5794 5791 5789 5786 5783 5780 5778 5775 5772 5769 5767 5764 5762 5759 5757 5755 5752 5750 5748
5837 5835 5833 5831 5828 5826 5823 5820 5817 5814 5811 5808 5805 5802 5799 5796 5794 5791 5788 5786 5784 5781 5779 5776 5773 5770 5768 5765 5762 5759 5757 5754 5752 5749 5747 5744 5742 5740
5830 5828 5826 5824 5821 5818 5816 5813 5810 5807 5804 5801 5798 5795 5792 5788 5785 5783 5780 5778 5775 5773 5770 5768 5765 5762 5760 5757 5755 5752 5749 5747 5744 5742 5739 5737 5734 5732
5822 5820 5818 5815 5813 5810 5808 5805 5802 5799 5796 5793 5790 5787 5783 5780 5776 5774 5772 5769 5767 5764 5762 5759 5757 5754 5752 5749 5747 5744 5742 5739 5736 5734 5732 5729 5727 5724
5814 5811 5809 5807 5804 5802 5799 5796 5793 5790 5787 5785 5781 5778 5775 5771 5768 5765 5763 5760 5758 5756 5753 5751 5748 5745 5743 5740 5738 5736 5734 5731 5729 5726 5724 5722 5719 5716
5805 5802 5800 5798 5795 5793 5789 5787 5784 5781 5778 5775 5772 5769 5766 5763 5759 5757 5754 5751 5749 5747 5744 5742 5739 5736 5734 5732 5730 5728 5725 5723 5721 5718 5716 5713 5711 5708
5796 5793 5791 5788 5786 5783 5780 5777 5774 5771 5768 5765 5762 5759 5756 5753 5750 5747 5745 5742 5740 5738 5735 5733 5730 5728 5726 5723 5722 5719 5717 5715 5712 5710 5707 5705 5703 5700
5786 5784 5781 5778 5775 5772 5769 5767 5764 5761 5758 5755 5752 5749 5746 5743 5740 5738 5735 5733 5730 5728 5726 5724 5721 5719 5717 5715 5713 5710 5708 5706 5703 5701 5699 5697 5695 5692
5776 5774 5771 5768 5765 5762 5759 5756 5753 5751 5748 5745 5742 5739 5736 5734 5731 5728 5725 5723 5721 5718 5716 5714 5712 5710 5707 5706 5704 5701 5699 5696 5694 5692 5690 5688 5686 5683
5766 5763 5761 5758 5755 5752 5749 5746 5743 5740 5738 5735 5732 5729 5726 5723 5720 5718 5715 5713 5710 5708 5706 5704 5702 5700 5697 5695 5694 5692 5689 5687 5685 5683 5681 5679 5677 5674
5756 5753 5750 5747 5745 5742 5739 5736 5733 5730 5727 5724 5721 5719 5716 5713 5710 5707 5704 5702 5700 5697 5695 5693 5691 5689 5687 5685 5684 5682 5680 5678 5675 5673 5671 5669 5667 5665
5745 5743 5740 5738 5735 5732 5729 5726 5723 5720 5717 5714 5711 5709 5706 5702 5699 5696 5694 5691 5689 5687 5685 5683 5681 5679 5677 5675 5673 5672 5670 5668 5666 5664 5662 5660 5658 5656